STARLINK-1275 (45407 NORAD) Tracking and Keplerian Element Data

This shows tracking and keplerian element data for the satellite.

Feedback or suggestion? Click here.




ElementValue
Catalog45407
NameSTARLINK-1275
Epoch Orbit1780
Epoch Day190.25001157
Epoch Year2020
RAAN71.2475
Inclination52.9956
Eccentricity0.0001506
Argument of Perigee57.5834
Mean Anonmoly206.1189
Mean Motion15.10773361
Decay Rate-0.00944407
L11 45407U 20019AZ 20190.25001157 -.00944407 00000-0 -60939-1 0 9993
L22 45407 52.9956 71.2475 0001506 57.5834 206.1189 15.10773361 17805

Live tracking and technical data element details for STARLINK-1275 (NORAD 45407). STARLINK-1275 can be tracked NOW for your location showing map with azimuth and elevation plus other details from your city location.

Track the satellite on the map from your city or location and see movement details for azimuth, elevation, latitude, longitude, range, height, and movement on the map or in text.







IsCatalogInMostPopularTable: catalog: 45407, numindb: 34
Update: records affected: 1



GetName: 45407 STARLINK-1275

Hit Count: updated at: Fri, 10 Jul 2020 02:32:37 GMT